Time,TemperatureF,DewpointF,PressureIn,WindDirection,WindDirectionDegrees,WindSpeedMPH,WindSpeedGustMPH,Humidity,HourlyPrecipIn,Conditions,Clouds,dailyrainin,SoftwareType,DateUTC
2013-11-16 10:23:00,62.0,56.0,30.15,ESE,121,5.0,-999.0,82,-99.99,,,0.00,,2013-11-16 16:23:00,
2013-11-16 10:43:00,61.0,56.0,30.14,ESE,113,6.0,-999.0,84,-99.99,,,0.00,,2013-11-16 16:43:00,
2013-11-16 10:53:00,61.0,56.0,30.14,SE,125,6.0,-999.0,85,-99.99,,,0.00,,2013-11-16 16:53:00,
2013-11-16 11:22:00,62.0,57.0,30.13,ESE,114,5.0,-999.0,84,-99.99,,,0.00,,2013-11-16 17:22:00,
2013-11-16 11:43:00,63.0,58.0,30.11,East,100,4.0,-999.0,83,-99.99,,,0.00,,2013-11-16 17:43:00,
2013-11-16 11:52:00,64.0,58.0,30.10,ESE,118,5.0,-999.0,82,-99.99,,,0.00,,2013-11-16 17:52:00,
2013-11-16 12:12:00,65.0,58.0,30.09,East,98,5.0,-999.0,79,-99.99,,,0.00,,2013-11-16 18:12:00,
2013-11-16 12:23:00,65.0,58.0,30.09,ENE,72,5.0,-999.0,78,-99.99,,,0.00,,2013-11-16 18:23:00,
2013-11-16 12:42:00,66.0,59.0,30.08,SE,125,4.0,-999.0,78,-99.99,,,0.00,,2013-11-16 18:42:00,
2013-11-16 12:52:00,65.0,59.0,30.07,ESE,106,6.0,-999.0,80,-99.99,,,0.00,,2013-11-16 18:52:00,
2013-11-16 13:22:00,66.0,59.0,30.05,East,91,5.0,-999.0,79,-99.99,,,0.00,,2013-11-16 19:22:00,
2013-11-16 13:42:00,66.0,59.0,30.05,East,94,5.0,-999.0,79,-99.99,,,0.00,,2013-11-16 19:42:00,
2013-11-16 13:53:00,66.0,59.0,30.04,ESE,106,4.0,-999.0,79,-99.99,,,0.00,,2013-11-16 19:53:00,
2013-11-16 14:22:00,65.0,59.0,30.04,East,100,3.0,-999.0,81,-99.99,,,0.00,,2013-11-16 20:22:00,
2013-11-16 14:42:00,65.0,59.0,30.04,SE,128,3.0,-999.0,81,-99.99,,,0.00,,2013-11-16 20:42:00,
2013-11-16 15:21:00,66.0,60.0,30.03,SSE,159,3.0,-999.0,81,-99.99,,,0.00,,2013-11-16 21:21:00,
2013-11-16 15:44:00,66.0,60.0,30.03,East,93,3.0,-999.0,80,-99.99,,,0.00,,2013-11-16 21:44:00,
2013-11-16 15:54:00,66.0,60.0,30.03,SE,131,3.0,-999.0,81,-99.99,,,0.00,,2013-11-16 21:54:00,
2013-11-16 16:24:00,66.0,60.0,30.04,South,170,2.0,-999.0,81,-99.99,,,0.00,,2013-11-16 22:24:00,
2013-11-16 16:42:00,65.0,59.0,30.04,SSE,164,1.0,-999.0,82,-99.99,,,0.00,,2013-11-16 22:42:00,
2013-11-16 16:53:00,65.0,59.0,30.04,ESE,111,2.0,-999.0,82,-99.99,,,0.00,,2013-11-16 22:53:00,
2013-11-16 17:22:00,65.0,60.0,30.04,ESE,102,3.0,-999.0,83,-99.99,,,0.00,,2013-11-16 23:22:00,
2013-11-16 17:43:00,64.0,59.0,30.05,SE,127,2.0,-999.0,83,-99.99,,,0.00,,2013-11-16 23:43:00,
2013-11-16 17:53:00,64.0,59.0,30.05,East,89,1.0,-999.0,83,-99.99,,,0.00,,2013-11-16 23:53:00,
2013-11-16 18:12:00,64.0,59.0,30.05,ESE,112,2.0,-999.0,84,-99.99,,,0.00,,2013-11-17 00:12:00,
2013-11-16 18:22:00,64.0,59.0,30.05,ESE,122,2.0,-999.0,84,-99.99,,,0.00,,2013-11-17 00:22:00,
2013-11-16 18:42:00,64.0,59.0,30.05,ESE,121,2.0,-999.0,84,-99.99,,,0.00,,2013-11-17 00:42:00,
2013-11-16 18:52:00,64.0,59.0,30.06,South,183,2.0,-999.0,84,-99.99,,,0.00,,2013-11-17 00:52:00,
2013-11-16 19:22:00,64.0,59.0,30.06,East,83,3.0,-999.0,84,-99.99,,,0.00,,2013-11-17 01:22:00,
2013-11-16 19:52:00,64.0,59.0,30.06,SE,131,3.0,-999.0,84,-99.99,,,0.00,,2013-11-17 01:52:00,
2013-11-16 20:22:00,64.0,59.0,30.06,SSE,158,1.0,-999.0,84,-99.99,,,0.00,,2013-11-17 02:22:00,
2013-11-16 20:52:00,64.0,58.0,30.06,SE,143,3.0,-999.0,82,-99.99,,,0.00,,2013-11-17 02:52:00,
2013-11-16 21:22:00,64.0,58.0,30.06,East,100,3.0,-999.0,82,-99.99,,,0.00,,2013-11-17 03:22:00,
2013-11-16 21:56:00,64.0,59.0,30.05,SE,141,3.0,-999.0,83,-99.99,,,0.00,,2013-11-17 03:56:00,
2013-11-16 22:03:00,-999.0,-99.9,30.06,SSE,162,2.0,-999.0,-999,-99.99,,,-99.99,,2013-11-17 04:03:00,
2013-11-16 22:24:00,64.0,59.0,30.05,ESE,110,1.0,-999.0,84,-99.99,,,0.00,,2013-11-17 04:24:00,
2013-11-16 22:43:00,64.0,59.0,30.04,ESE,118,2.0,-999.0,84,-99.99,,,0.00,,2013-11-17 04:43:00,
2013-11-16 22:53:00,64.0,59.0,30.04,SE,144,3.0,-999.0,84,-99.99,,,0.00,,2013-11-17 04:53:00,
2013-11-16 23:23:00,64.0,59.0,30.03,ESE,110,2.0,-999.0,84,-99.99,,,0.00,,2013-11-17 05:23:00,
2013-11-16 23:53:00,63.0,58.0,30.03,ENE,75,2.0,-999.0,85,-99.99,,,0.00,,2013-11-17 05:53:00,